OK2ZAW-16 Weather Reports


time (UTC)temp
F
wind
direction
speed
knots
gust
knots
rain 1hr
in
rain 24hr
in
rain mn
in
humidity
%
barometer
mb
20260502231433 51 270 2.6 4.3 0.00 0.00 0.00 46 1022.1
20260502230924 51 270 2.6 4.3 0.00 0.00 0.00 46 1022.1
20260502230415 51 270 2.6 4.3 0.00 0.00 0.00 46 1022.1
20260502225358 51 270 2.6 4.3 0.00 0.00 0.00 46 1022.1
20260502224340 51 270 2.6 3.5 0.00 0.00 0.00 46 1022.3
20260502223831 51 270 2.6 5.2 0.00 0.00 0.00 46 1022.3
20260502223322 52 270 2.6 4.3 0.00 0.00 0.00 46 1022.3
20260502222820 52 270 2.6 3.5 0.00 0.00 0.00 46 1022.4
20260502222813 52 270 2.6 3.5 0.00 0.00 0.00 46 1022.4
20260502222311 52 270 2.6 5.2 0.00 0.00 0.00 46 1022.4
20260502222305 52 270 2.6 5.2 0.00 0.00 0.00 46 1022.4
20260502221755 52 270 2.6 3.5 0.00 0.00 0.00 47 1022.4
20260502221253 52 270 2.6 3.5 0.00 0.00 0.00 47 1022.4
20260502221246 52 270 2.6 3.5 0.00 0.00 0.00 47 1022.4
20260502220737 52 270 2.6 3.5 0.00 0.00 0.00 47 1022.4
20260502220236 0 270 2.6 4.3 0.00 0.00 0.00
20260502220228 52 270 2.6 4.3 0.00 0.00 0.00 47 1022.4
20260502215726 52 270 2.6 3.5 0.00 0.00 0.00 47 1022.4
20260502215719 52 270 2.6 3.5 0.00 0.00 0.00 47 1022.4
20260502215211 52 270 2.6 4.3 0.00 0.00 0.00 47 1022.4
20260502214702 52 270 2.6 5.2 0.00 0.00 0.00 47 1022.4
20260502214200 52 270 3.5 5.2 0.00 0.00 0.00 47 1022.5
20260502214153 52 270 3.5 5.2 0.00 0.00 0.00 47 1022.5
20260502213644 52 270 2.6 6.1 0.00 0.00 0.00 47 1022.3
20260502212626 52 270 2.6 4.3 0.00 0.00 0.00 47 1022.5
20260502212117 52 270 2.6 4.3 0.00 0.00 0.00 47 1022.5
20260502211608 52 270 2.6 5.2 0.00 0.00 0.00 47 1022.5
20260502211059 52 270 3.5 4.3 0.00 0.00 0.00 47 1022.6
20260502210557 52 270 2.6 4.3 0.00 0.00 0.00 47 1022.6
20260502210550 52 270 2.6 4.3 0.00 0.00 0.00 47 1022.6
20260502210047 52 270 2.6 5.2 0.00 0.00 0.00 47 1022.7
20260502210041 52 270 2.6 5.2 0.00 0.00 0.00 47 1022.7
20260502205538 52 270 2.6 4.3 0.00 0.00 0.00 47 1022.7
20260502205532 52 270 2.6 4.3 0.00 0.00 0.00 47 1022.7
20260502205023 52 270 2.6 4.3 0.00 0.00 0.00 47 1022.8
20260502204521 52 270 2.6 3.5 0.00 0.00 0.00 47 1022.8
20260502204514 52 270 2.6 3.5 0.00 0.00 0.00 47 1022.8
20260502204005 52 270 2.6 3.5 0.00 0.00 0.00 47 1022.8
20260502203456 52 270 2.6 4.3 0.00 0.00 0.00 47 1022.9
20260502202438 52 270 2.6 3.5 0.00 0.00 0.00 47 1023.0
20260502201421 52 270 2.6 4.3 0.00 0.00 0.00 47 1023.1
20260502200912 52 270 1.7 2.6 0.00 0.00 0.00 47 1023.1
20260502200403 52 270 1.7 3.5 0.00 0.00 0.00 47 1023.1
20260502195854 52 270 1.7 2.6 0.00 0.00 0.00 47 1023.2
20260502195345 52 270 1.7 2.6 0.00 0.00 0.00 48 1023.2
20260502194842 51 270 1.7 2.6 0.00 0.00 0.00 48 1023.2
20260502194836 51 270 1.7 2.6 0.00 0.00 0.00 48 1023.2
20260502193832 51 270 0.9 1.7 0.00 0.00 0.00 48 1023.2
20260502193818 51 270 0.9 1.7 0.00 0.00 0.00 48 1023.2
20260502193309 51 270 0.9 1.7 0.00 0.00 0.00 48 1023.3
20260502192800 52 270 0.9 1.7 0.00 0.00 0.00 47 1023.4
20260502192258 52 270 0.9 1.7 0.00 0.00 0.00 47 102.3
20260502192251 52 270 0.9 1.7 0.00 0.00 0.00 47 1023.4
20260502191749 52 270 0.9 0.9 0.00 0.00 0.00 47 1023.3
20260502191742 52 270 0.9 0.9 0.00 0.00 0.00 47 1023.3
20260502191233 52 270 0.9 0.9 0.00 0.00 0.00 47 1023.3
20260502190725 52 270 0.9 0.9 0.00 0.00 0.00 47 1023.3
20260502190222 52 270 0.9 1.7 0.00 0.00 0.00 47 1023.3
20260502190216 52 270 0.9 1.7 0.00 0.00 0.00 47 1023.3
20260502185707 52 270 0.9 1.7 0.00 0.00 0.00 47 1023.3
20260502185204 52 270 0.9 0.9 0.00 0.00 0.00 47 1023.3
20260502185158 52 270 0.9 0.9 0.00 0.00 0.00 47 1023.3
20260502184140 52 270 0.0 0.9 0.00 0.00 0.00 47 1023.2
20260502183631 53 270 0.0 0.9 0.00 0.00 0.00 47 1023.3
20260502183122 53 270 0.9 0.9 0.00 0.00 0.00 47 1023.3
20260502182613 53 270 0.9 0.9 0.00 0.00 0.00 47 1023.2
20260502180537 54 270 0.0 0.9 0.00 0.00 0.00 47 1023.1
20260502170348 60 270 0.9 1.7 0.00 0.00 0.00 45 1023.3
20260502164311 61 270 0.9 1.7 0.00 0.00 0.00 44 1023.5
20260502163802 61 270 0.0 0.9 0.00 0.00 0.00 44 1023.5
20260502163253 61 270 0.9 1.7 0.00 0.00 0.00 44 1023.5
20260502162744 61 270 0.9 2.6 0.00 0.00 0.00 44 1023.5
20260502162234 61 270 0.0 0.9 0.00 0.00 0.00 44 1023.6
20260502161725 62 270 0.9 1.7 0.00 0.00 0.00 44 1023.7
20260502160713 62 270 0.9 1.7 0.00 0.00 0.00 44 1023.8
20260502160707 62 270 0.9 1.7 0.00 0.00 0.00 44 1023.8
20260502160158 62 270 0.9 2.6 0.00 0.00 0.00 44 1023.9
20260502152043 63 270 0.9 2.6 0.00 0.00 0.00 43 1024.2
20260502151534 63 270 0.9 2.6 0.00 0.00 0.00 43 1024.3
20260502150515 63 270 0.9 1.7 0.00 0.00 0.00 43 1024.3
20260502130644 68 270 0.9 2.6 0.00 0.00 0.00 42 1025.2
20260502130638 68 270 0.9 2.6 0.00 0.00 0.00 42 1025.2
20260502130135 68 270 1.7 2.6 0.00 0.00 0.00 42 1025.2
20260502130132 68 270 1.7 2.6 0.00 0.00 0.00 42 1025.2
20260502130128 68 270 1.7 2.6 0.00 0.00 0.00 42 1025.2
20260502123547 68 270 0.9 2.6 0.00 0.00 0.00 43 1025.5
20260502123540 68 270 0.9 2.6 0.00 0.00 0.00 43 1025.5
20260502123031 68 270 0.9 3.5 0.00 0.00 0.00 43 1025.5
20260502122521 68 270 0.9 1.7 0.00 0.00 0.00 43 1025.5
20260502122018 68 270 0.9 3.5 0.00 0.00 0.00 43 1025.6
20260502122012 68 270 0.9 3.5 0.00 0.00 0.00 43 1025.6
20260502121509 68 270 0.9 0.9 0.00 0.00 0.00 43 1025.7
20260502121502 68 270 0.9 0.9 0.00 0.00 0.00 43 1025.7
20260502120443 68 270 0.9 0.9 0.00 0.00 0.00 43 1025.8
20260502115425 68 270 1.7 2.6 0.00 0.00 0.00 43 1025.9
20260502114921 68 270 0.9 2.6 0.00 0.00 0.00 43 1026.0
20260502114915 68 270 0.9 2.6 0.00 0.00 0.00 43 1026.0
20260502113902 68 270 1.7 2.6 0.00 0.00 0.00 44 1026.1
20260502113856 68 270 1.7 2.6 0.00 0.00 0.00 44 1026.1
20260502113353 67 270 1.7 2.6 0.00 0.00 0.00 44 1026.1
20260502113346 67 270 1.7 2.6 0.00 0.00 0.00 44 1026.1
20260502112327 67 270 0.9 1.7 0.00 0.00 0.00 44 1026.2
20260502111818 67 270 0.9 1.7 0.00 0.00 0.00 44 1026.2
20260502110250 66 270 1.7 1.7 0.00 0.00 0.00 44 1026.4
20260502105740 66 270 0.9 2.6 0.00 0.00 0.00 44 1026.4
20260502104212 66 270 0.9 1.7 0.00 0.00 0.00 45 1026.5
20260502103709 65 270 0.9 1.7 0.00 0.00 0.00 45 1026.6
20260502103703 65 270 0.9 1.7 0.00 0.00 0.00 45 1026.6
20260502103153 65 270 0.9 1.7 0.00 0.00 0.00 45 1026.6
20260502102644 65 270 0.9 1.7 0.00 0.00 0.00 45 1026.7
20260502101631 65 270 0.9 1.7 0.00 0.00 0.00 45 1026.7
20260502101625 65 270 0.9 1.7 0.00 0.00 0.00 45 1026.7
20260502101116 65 270 0.9 1.7 0.00 0.00 0.00 45 1026.8
20260502100606 65 270 0.9 2.6 0.00 0.00 0.00 45 1026.9
20260502091439 64 270 0.9 1.7 0.00 0.00 0.00 46 1027.3
20260502091433 64 270 0.9 1.7 0.00 0.00 0.00 46 1027.3
20260502090930 64 270 0.9 3.5 0.00 0.00 0.00 47 1027.3
20260502090923 64 270 0.9 3.5 0.00 0.00 0.00 47 1027.3
20260502090421 63 270 0.9 1.7 0.00 0.00 0.00 47 1027.3
20260502090414 63 270 0.9 1.7 0.00 0.00 0.00 47 1027.3
20260502071122 57 270 1.7 1.7 0.00 0.00 0.00 51 1027.6
20260502071052 57 270 1.7 1.7 0.00 0.00 0.00 51 1027.6
20260502070034 56 270 0.9 1.7 0.00 0.00 0.00 52 1027.6
20260502064507 55 270 1.7 4.3 0.00 0.00 0.00 52 1027.4
20260502063958 54 270 1.7 3.5 0.00 0.00 0.00 53 1027.5
20260502063449 54 270 1.7 3.5 0.00 0.00 0.00 53 1027.5
20260502062940 53 270 0.9 2.6 0.00 0.00 0.00 53 1027.5
20260502061922 53 270 1.7 3.5 0.00 0.00 0.00 53 1027.5
20260502061413 52 270 1.7 2.6 0.00 0.00 0.00 53 1027.5
20260502060904 52 270 0.9 2.6 0.00 0.00 0.00 53 1027.5
20260502055846 51 270 1.7 2.6 0.00 0.00 0.00 53 1027.5
20260502055337 51 270 1.7 2.6 0.00 0.00 0.00 54 1027.5
20260502054828 51 270 0.9 1.7 0.00 0.00 0.00 54 1027.4
20260502053850 50 270 1.7 2.6 0.00 0.00 0.00 54 1027.4
20260502053810 50 270 1.7 2.6 0.00 0.00 0.00 54 1027.4
20260502053301 50 270 1.7 3.5 0.00 0.00 0.00 54 1027.4
20260502052753 50 270 1.7 2.6 0.00 0.00 0.00 54 1027.4
20260502052244 49 270 0.9 1.7 0.00 0.00 0.00 54 1027.4
20260502051226 49 270 0.9 1.7 0.00 0.00 0.00 55 1027.4
20260502050717 48 270 1.7 1.7 0.00 0.00 0.00 55 1027.4
20260502050209 48 270 1.7 2.6 0.00 0.00 0.00 55 1027.3
20260502045700 48 270 0.9 1.7 0.00 0.00 0.00 55 1027.3
20260502045238 47 270 0.9 2.6 0.00 0.00 0.00 55 1027.3
20260502045151 47 270 0.9 2.6 0.00 0.00 0.00 55 1027.3
20260502044642 47 270 0.9 1.7 0.00 0.00 0.00 55 1027.3
20260502043624 46 270 0.9 1.7 0.00 0.00 0.00 56 1027.3
20260502043116 45 270 0.9 1.7 0.00 0.00 0.00 56 1027.3
20260502042734 45 270 0.9 1.7 0.00 0.00 0.00 56 1027.3
20260502042607 45 270 0.9 1.7 0.00 0.00 0.00 56 1027.3
20260502042058 44 270 0.9 1.7 0.00 0.00 0.00 56 1027.3
20260502041040 43 270 0.9 1.7 0.00 0.00 0.00 56 1027.3
20260502040628 43 270 0.9 1.7 0.00 0.00 0.00 56 1027.3
20260502040532 43 270 0.9 1.7 0.00 0.00 0.00 56 1027.3
20260502040023 42 270 0.9 0.9 0.00 0.00 0.00 56 1027.3
20260502035514 42 270 0.0 0.9 0.00 0.00 0.00 56 1027.4
20260502035014 42 270 0.9 1.7 0.00 0.00 0.00 56 1027.4
20260502035006 42 270 0.9 1.7 0.00 0.00 0.00 56 1027.4
20260502034457 42 270 0.9 0.9 0.00 0.00 0.00 55 1027.3
20260502033958 43 270 0.9 0.9 0.00 0.00 0.00 55 1027.3
20260502033948 43 270 0.9 0.9 0.00 0.00 0.00 55 1027.3
20260502033451 43 270 0.9 1.7 0.00 0.00 0.00 55 1027.4
20260502033439 43 270 0.9 1.7 0.00 0.00 0.00 55 1027.4
20260502032931 43 270 0.9 1.7 0.00 0.00 0.00 55 1027.4
20260502032422 43 270 0.9 0.9 0.00 0.00 0.00 55 1027.4
20260502031913 43 270 0.9 1.7 0.00 0.00 0.00 55 1027.4
20260502031404 43 270 0.9 1.7 0.00 0.00 0.00 55 1027.5
20260502030856 44 270 0.9 1.7 0.00 0.00 0.00 55 1027.4
20260502030347 44 270 0.9 0.9 0.00 0.00 0.00 55 1027.5
20260502025838 44 270 0.9 0.9 0.00 0.00 0.00 55 1027.5
20260502025329 44 270 0.9 1.7 0.00 0.00 0.00 55 1027.5
20260502024821 44 270 0.9 0.9 0.00 0.00 0.00 55 1027.6
20260502024312 44 270 0.9 1.7 0.00 0.00 0.00 55 1027.6
20260502023803 45 270 0.9 1.7 0.00 0.00 0.00 55 1027.7
20260502023254 45 270 0.9 0.9 0.00 0.00 0.00 55 1027.7
20260502022746 45 270 0.9 0.9 0.00 0.00 0.00 55 1027.7
20260502022237 45 270 0.9 0.9 0.00 0.00 0.00 55 1027.7
20260502021728 45 270 0.9 0.9 0.00 0.00 0.00 54 1027.7
20260502020710 45 270 0.9 1.7 0.00 0.00 0.00 54 1027.6
20260502020202 45 270 0.9 1.7 0.00 0.00 0.00 54 1027.7
20260502015653 45 270 0.9 1.7 0.00 0.00 0.00 54 1027.6
20260502015144 45 270 0.9 1.7 0.00 0.00 0.00 54 1027.6
20260502014127 45 270 0.9 1.7 0.00 0.00 0.00 54 1027.6
20260502013618 45 270 0.9 1.7 0.00 0.00 0.00 54 1027.6
20260502012600 45 270 0.9 1.7 0.00 0.00 0.00 54 1027.7
20260502012051 45 270 0.9 1.7 0.00 0.00 0.00 54 1027.7
20260502011543 45 270 0.9 1.7 0.00 0.00 0.00 54 1027.8
20260502011034 45 270 0.9 1.7 0.00 0.00 0.00 54 1027.8
20260502010016 45 270 0.9 1.7 0.00 0.00 0.00 54 1027.9
20260502005508 45 270 0.9 1.7 0.00 0.00 0.00 54 1028.0
20260502004959 45 270 0.9 1.7 0.00 0.00 0.00 54 1027.9
20260502003941 45 270 0.9 1.7 0.00 0.00 0.00 54 1028.0
20260502003432 45 270 0.9 0.9 0.00 0.00 0.00 54 1028.0
20260502002924 45 270 0.9 1.7 0.00 0.00 0.00 54 1028.0
20260502002415 45 270 0.9 1.7 0.00 0.00 0.00 54 1028.0
20260502001906 45 270 0.9 1.7 0.00 0.00 0.00 54 1028.1
20260502001357 45 270 0.9 1.7 0.00 0.00 0.00 53 1028.1
20260502000849 45 270 0.9 1.7 0.00 0.00 0.00 53 1028.1
20260502000340 46 270 0.9 0.9 0.00 0.00 0.00 53 1028.1
20260501235322 46 270 0.9 1.7 0.00 0.00 0.00 53 1028.1
20260501234813 46 270 1.7 1.7 0.00 0.00 0.00 53 1028.0
20260501234305 46 270 0.9 1.7 0.00 0.00 0.00 53 1028.0
20260501233756 46 270 0.9 1.7 0.00 0.00 0.00 53 1027.9
20260501232738 46 270 1.7 2.6 0.00 0.00 0.00 53 1028.0
20260501232230 46 270 0.9 3.5 0.00 0.00 0.00 53 1028.1